Weather in Macapá

Brazil     0°01′12″N   51°04′38″W
temp.,
°C
wind,
m/s
gust,
m/s
humid.,
%
clouds,
%
prec.,
mm/h
press.,
hPa
HPBL,
m
30 june, thu
thu3000:00+24nne348862 5.8 1014171
03:00+23nnw349296 7.6 1013192
06:00+23n239288 0.0 1013178
09:00+24n228746 0.0 1014285
12:00+26ne347797 0.0 1013451
15:00+27ene34745 0.2 1010398
18:00+27ene45819 1.0 1010203
21:00+26ene588376 3.8 1012436
1 july, fri
fri100:00+25ne588610 3.4 1013339
03:00+24ne578998 5.8 1011257
06:00+24nne469119 0.2 1012244
09:00+25ne348898 2.3 1014224
12:00+28ene46745 0.9 1013588
15:00+28ene67766 1.4 1010507
18:00+27ene578214 1.8 1011431
21:00+26ene698120 2.2 1013535
2 july, sat
sat200:00+26ne58858 1.8 1013501
03:00+25ne578611 3.9 1012578
06:00+25ene47877 1.5 1012443
09:00+26ene57862 2.6 1014543
12:00+28ene57733 0.9 1014550
15:00+29ene67697 1.3 1011660
18:00+27ene68805 1.2 1012481
21:00+26ene69855 2.9 1014489
3 july, sun
sun300:00+25ene59875 1.2 1014523
03:00+24e599111 2.5 1012455
06:00+24e49909 1.7 1013409
09:00+26e49865 3.6 1015676
12:00+28ene5775100 1.6 1015613
15:00+28ene577699 2.8 1012605
18:00+26ene47865 2.4 1013444
21:00+25ene58877 4.3 1015484
4 july, mon
mon400:00+25e498916 2.6 1016459
03:00+25e59877 4.8 1014437
06:00+24e478665 2.1 1014319
09:00+26e368282 3.8 1015407
12:00+28ene467429 1.9 1015463
15:00+28ene56735 3.7 1012433
18:00+26ene46835 2.9 1013309
21:00+26ene578195 5.0 1015385